owner,sensor,date,latitude,longitude,vertical_datum,wind_speed,wind_to_direction,wind_speed_of_gust,qcFlag 
DISL,ioos:station:DISL:PPTA:1,2012-09-01T00:00:00Z,30.2791,-87.5561,0.0,3.91,141.5,-9999.0,'1111122,1111122,1111122' 
DISL,ioos:station:DISL:PPTA:1,2012-09-01T00:30:00Z,30.2791,-87.5561,0.0,3.87,142.8,-9999.0,'1111122,1111122,1111122' 
DISL,ioos:station:DISL:PPTA:1,2012-09-01T01:00:00Z,30.2791,-87.5561,0.0,3.63,135.4,-9999.0,'1111122,1111122,1111122' 
DISL,ioos:station:DISL:PPTA:1,2012-09-01T01:30:00Z,30.2791,-87.5561,0.0,4.09,142.1,-9999.0,'1111122,1111122,1111122' 
DISL,ioos:station:DISL:PPTA:1,2012-09-01T02:00:00Z,30.2791,-87.5561,0.0,4.42,148.1,-9999.0,'1111122,1111122,1111122' 
DISL,ioos:station:DISL:PPTA:1,2012-09-01T02:30:00Z,30.2791,-87.5561,0.0,4.94,145.9,-9999.0,'1111122,1111122,1111122' 
DISL,ioos:station:DISL:PPTA:1,2012-09-01T03:00:00Z,30.2791,-87.5561,0.0,4.55,149.1,-9999.0,'1111122,1111122,1111122' 
DISL,ioos:station:DISL:PPTA:1,2012-09-01T03:30:00Z,30.2791,-87.5561,0.0,4.7,150.5,-9999.0,'1111122,1111122,1111122' 
DISL,ioos:station:DISL:PPTA:1,2012-09-01T04:00:00Z,30.2791,-87.5561,0.0,3.5,160.1,-9999.0,'1111122,1111122,1111122' 
DISL,ioos:station:DISL:PPTA:1,2012-09-01T04:30:00Z,30.2791,-87.5561,0.0,2.67,167.0,-9999.0,'1111122,1111122,1111122' 
DISL,ioos:station:DISL:PPTA:1,2012-09-01T05:00:00Z,30.2791,-87.5561,0.0,2.86,176.0,-9999.0,'1111122,1111122,1111122' 
DISL,ioos:station:DISL:PPTA:1,2012-09-01T05:30:00Z,30.2791,-87.5561,0.0,3.29,176.0,-9999.0,'1111122,1111122,1111122' 
DISL,ioos:station:DISL:PPTA:1,2012-09-01T06:00:00Z,30.2791,-87.5561,0.0,3.27,175.6,-9999.0,'1111122,1111122,1111122' 
DISL,ioos:station:DISL:PPTA:1,2012-09-01T06:30:00Z,30.2791,-87.5561,0.0,2.92,176.5,-9999.0,'1111122,1111122,1111122' 
DISL,ioos:station:DISL:PPTA:1,2012-09-01T07:00:00Z,30.2791,-87.5561,0.0,2.77,175.8,-9999.0,'1111122,1111122,1111122' 
DISL,ioos:station:DISL:PPTA:1,2012-09-01T07:30:00Z,30.2791,-87.5561,0.0,1.69,182.1,-9999.0,'1111122,1111122,1111122' 
DISL,ioos:station:DISL:PPTA:1,2012-09-01T08:00:00Z,30.2791,-87.5561,0.0,0.94,183.2,-9999.0,'1111122,1111122,1111122' 
DISL,ioos:station:DISL:PPTA:1,2012-09-01T08:30:00Z,30.2791,-87.5561,0.0,1.91,177.5,-9999.0,'1111122,1111122,1111122' 
DISL,ioos:station:DISL:PPTA:1,2012-09-01T09:00:00Z,30.2791,-87.5561,0.0,1.49,175.1,-9999.0,'1111122,1111122,1111122' 
DISL,ioos:station:DISL:PPTA:1,2012-09-01T09:30:00Z,30.2791,-87.5561,0.0,1.1,179.2,-9999.0,'1111122,1111122,1111122' 
DISL,ioos:station:DISL:PPTA:1,2012-09-01T10:00:00Z,30.2791,-87.5561,0.0,0.58,236.5,-9999.0,'1111122,1111122,1111122' 
DISL,ioos:station:DISL:PPTA:1,2012-09-01T10:30:00Z,30.2791,-87.5561,0.0,0.17,32.35,-9999.0,'1111122,1111122,1111122' 
DISL,ioos:station:DISL:PPTA:1,2012-09-01T11:00:00Z,30.2791,-87.5561,0.0,0.0,0.0,-9999.0,'1114422,1114422,1111122' 
DISL,ioos:station:DISL:PPTA:1,2012-09-01T11:30:00Z,30.2791,-87.5561,0.0,0.48,332.1,-9999.0,'1111122,1111122,1111122' 
DISL,ioos:station:DISL:PPTA:1,2012-09-01T12:00:00Z,30.2791,-87.5561,0.0,0.5,300.2,-9999.0,'1111122,1111122,1111122' 
DISL,ioos:station:DISL:PPTA:1,2012-09-01T12:30:00Z,30.2791,-87.5561,0.0,0.16,2.566,-9999.0,'1111122,1111122,1111122' 
DISL,ioos:station:DISL:PPTA:1,2012-09-01T13:00:00Z,30.2791,-87.5561,0.0,0.61,30.63,-9999.0,'1111122,1111122,1111122' 
DISL,ioos:station:DISL:PPTA:1,2012-09-01T13:30:00Z,30.2791,-87.5561,0.0,0.69,32.97,-9999.0,'1111122,1111122,1111122' 
DISL,ioos:station:DISL:PPTA:1,2012-09-01T14:00:00Z,30.2791,-87.5561,0.0,1.0,59.11,-9999.0,'1111122,1111122,1111122' 
DISL,ioos:station:DISL:PPTA:1,2012-09-01T14:30:00Z,30.2791,-87.5561,0.0,1.26,111.8,-9999.0,'1111122,1111122,1111122' 
DISL,ioos:station:DISL:PPTA:1,2012-09-01T15:00:00Z,30.2791,-87.5561,0.0,1.6,126.4,-9999.0,'1111122,1111122,1111122' 
DISL,ioos:station:DISL:PPTA:1,2012-09-01T15:30:00Z,30.2791,-87.5561,0.0,1.74,130.4,-9999.0,'1111122,1111122,1111122' 
DISL,ioos:station:DISL:PPTA:1,2012-09-01T16:00:00Z,30.2791,-87.5561,0.0,1.61,137.8,-9999.0,'1111122,1111122,1111122' 
DISL,ioos:station:DISL:PPTA:1,2012-09-01T16:30:00Z,30.2791,-87.5561,0.0,1.66,161.5,-9999.0,'1111122,1111122,1111122' 
DISL,ioos:station:DISL:PPTA:1,2012-09-01T17:00:00Z,30.2791,-87.5561,0.0,1.55,149.2,-9999.0,'1111122,1111122,1111122' 
DISL,ioos:station:DISL:PPTA:1,2012-09-01T17:30:00Z,30.2791,-87.5561,0.0,2.46,156.9,-9999.0,'1111122,1111122,1111122' 
DISL,ioos:station:DISL:PPTA:1,2012-09-01T18:00:00Z,30.2791,-87.5561,0.0,2.3,156.8,-9999.0,'1111122,1111122,1111122' 
DISL,ioos:station:DISL:PPTA:1,2012-09-01T18:30:00Z,30.2791,-87.5561,0.0,2.7,157.9,-9999.0,'1111122,1111122,1111122' 
DISL,ioos:station:DISL:PPTA:1,2012-09-01T19:00:00Z,30.2791,-87.5561,0.0,3.16,157.7,-9999.0,'1111122,1111122,1111122' 
DISL,ioos:station:DISL:PPTA:1,2012-09-01T19:30:00Z,30.2791,-87.5561,0.0,3.12,162.7,-9999.0,'1111122,1111122,1111122' 
DISL,ioos:station:DISL:PPTA:1,2012-09-01T20:00:00Z,30.2791,-87.5561,0.0,3.16,166.7,-9999.0,'1111122,1111122,1111122' 
DISL,ioos:station:DISL:PPTA:1,2012-09-01T20:30:00Z,30.2791,-87.5561,0.0,3.11,167.7,-9999.0,'1111122,1111122,1111122' 
DISL,ioos:station:DISL:PPTA:1,2012-09-01T21:00:00Z,30.2791,-87.5561,0.0,3.09,175.5,-9999.0,'1111122,1111122,1111122' 
DISL,ioos:station:DISL:PPTA:1,2012-09-01T21:30:00Z,30.2791,-87.5561,0.0,3.17,172.4,-9999.0,'1111122,1111122,1111122' 
DISL,ioos:station:DISL:PPTA:1,2012-09-01T22:00:00Z,30.2791,-87.5561,0.0,3.84,178.7,-9999.0,'1111122,1111122,1111122' 
DISL,ioos:station:DISL:PPTA:1,2012-09-01T22:30:00Z,30.2791,-87.5561,0.0,3.3,179.2,-9999.0,'1111122,1111122,1111122' 
DISL,ioos:station:DISL:PPTA:1,2012-09-01T23:00:00Z,30.2791,-87.5561,0.0,2.41,177.2,-9999.0,'1111122,1111122,1111122' 
DISL,ioos:station:DISL:PPTA:1,2012-09-01T23:30:00Z,30.2791,-87.5561,0.0,2.3,177.3,-9999.0,'1111122,1111122,1111122' 
DISL,ioos:station:DISL:PPTA:1,2012-09-02T00:00:00Z,30.2791,-87.5561,0.0,2.34,180.3,-9999.0,'1111122,1111122,1111122' 
DISL,ioos:station:DISL:PPTA:1,2012-09-02T00:30:00Z,30.2791,-87.5561,0.0,1.32,199.8,-9999.0,'1111122,1111122,1111122' 
DISL,ioos:station:DISL:PPTA:1,2012-09-02T01:00:00Z,30.2791,-87.5561,0.0,1.08,218.3,-9999.0,'1111122,1111122,1111122' 
DISL,ioos:station:DISL:PPTA:1,2012-09-02T01:30:00Z,30.2791,-87.5561,0.0,0.67,202.9,-9999.0,'1111122,1111122,1111122' 
DISL,ioos:station:DISL:PPTA:1,2012-09-02T02:00:00Z,30.2791,-87.5561,0.0,1.12,219.6,-9999.0,'1111122,1111122,1111122' 
DISL,ioos:station:DISL:PPTA:1,2012-09-02T02:30:00Z,30.2791,-87.5561,0.0,1.32,191.3,-9999.0,'1111122,1111122,1111122' 
DISL,ioos:station:DISL:PPTA:1,2012-09-02T03:00:00Z,30.2791,-87.5561,0.0,1.41,193.0,-9999.0,'1111122,1111122,1111122' 
DISL,ioos:station:DISL:PPTA:1,2012-09-02T03:30:00Z,30.2791,-87.5561,0.0,1.07,224.8,-9999.0,'1111122,1111122,1111122' 
DISL,ioos:station:DISL:PPTA:1,2012-09-02T04:00:00Z,30.2791,-87.5561,0.0,1.29,219.6,-9999.0,'1111122,1111122,1111122' 
DISL,ioos:station:DISL:PPTA:1,2012-09-02T04:30:00Z,30.2791,-87.5561,0.0,1.45,231.6,-9999.0,'1111122,1111122,1111122' 
DISL,ioos:station:DISL:PPTA:1,2012-09-02T05:00:00Z,30.2791,-87.5561,0.0,2.83,239.6,-9999.0,'1111122,1111122,1111122' 
DISL,ioos:station:DISL:PPTA:1,2012-09-02T05:30:00Z,30.2791,-87.5561,0.0,1.8,257.4,-9999.0,'1111122,1111122,1111122' 
DISL,ioos:station:DISL:PPTA:1,2012-09-02T06:00:00Z,30.2791,-87.5561,0.0,1.55,252.8,-9999.0,'1111122,1111122,1111122' 
DISL,ioos:station:DISL:PPTA:1,2012-09-02T06:30:00Z,30.2791,-87.5561,0.0,1.48,248.5,-9999.0,'1111122,1111122,1111122' 
DISL,ioos:station:DISL:PPTA:1,2012-09-02T07:00:00Z,30.2791,-87.5561,0.0,2.1,236.6,-9999.0,'1111122,1111122,1111122' 
DISL,ioos:station:DISL:PPTA:1,2012-09-02T07:30:00Z,30.2791,-87.5561,0.0,1.67,230.3,-9999.0,'1111122,1111122,1111122' 
DISL,ioos:station:DISL:PPTA:1,2012-09-02T08:00:00Z,30.2791,-87.5561,0.0,1.54,231.0,-9999.0,'1111122,1111122,1111122' 
DISL,ioos:station:DISL:PPTA:1,2012-09-02T08:30:00Z,30.2791,-87.5561,0.0,1.85,234.7,-9999.0,'1111122,1111122,1111122' 
DISL,ioos:station:DISL:PPTA:1,2012-09-02T09:00:00Z,30.2791,-87.5561,0.0,2.45,245.2,-9999.0,'1111122,1111122,1111122' 
DISL,ioos:station:DISL:PPTA:1,2012-09-02T09:30:00Z,30.2791,-87.5561,0.0,2.84,237.2,-9999.0,'1111122,1111122,1111122' 
DISL,ioos:station:DISL:PPTA:1,2012-09-02T10:00:00Z,30.2791,-87.5561,0.0,2.4,238.5,-9999.0,'1111122,1111122,1111122' 
DISL,ioos:station:DISL:PPTA:1,2012-09-02T10:30:00Z,30.2791,-87.5561,0.0,1.94,243.8,-9999.0,'1111122,1111122,1111122' 
DISL,ioos:station:DISL:PPTA:1,2012-09-02T11:00:00Z,30.2791,-87.5561,0.0,1.46,279.9,-9999.0,'1111122,1111122,1111122' 
DISL,ioos:station:DISL:PPTA:1,2012-09-02T11:30:00Z,30.2791,-87.5561,0.0,1.2,276.6,-9999.0,'1111122,1111122,1111122' 
DISL,ioos:station:DISL:PPTA:1,2012-09-02T12:00:00Z,30.2791,-87.5561,0.0,1.35,242.4,-9999.0,'1111122,1111122,1111122' 
DISL,ioos:station:DISL:PPTA:1,2012-09-02T12:30:00Z,30.2791,-87.5561,0.0,1.77,275.3,-9999.0,'1111122,1111122,1111122' 
DISL,ioos:station:DISL:PPTA:1,2012-09-02T13:00:00Z,30.2791,-87.5561,0.0,3.04,274.8,-9999.0,'1111122,1111122,1111122' 
DISL,ioos:station:DISL:PPTA:1,2012-09-02T13:30:00Z,30.2791,-87.5561,0.0,3.75,275.9,-9999.0,'1111122,1111122,1111122' 
DISL,ioos:station:DISL:PPTA:1,2012-09-02T14:00:00Z,30.2791,-87.5561,0.0,3.89,269.0,-9999.0,'1111122,1111122,1111122' 
DISL,ioos:station:DISL:PPTA:1,2012-09-02T14:30:00Z,30.2791,-87.5561,0.0,2.69,289.2,-9999.0,'1111122,1111122,1111122' 
DISL,ioos:station:DISL:PPTA:1,2012-09-02T15:00:00Z,30.2791,-87.5561,0.0,2.08,272.0,-9999.0,'1111122,1111122,1111122' 
DISL,ioos:station:DISL:PPTA:1,2012-09-02T15:30:00Z,30.2791,-87.5561,0.0,0.81,1.115,-9999.0,'1111122,1111122,1111122' 
DISL,ioos:station:DISL:PPTA:1,2012-09-02T16:00:00Z,30.2791,-87.5561,0.0,1.26,244.6,-9999.0,'1111122,1111122,1111122' 
DISL,ioos:station:DISL:PPTA:1,2012-09-02T16:30:00Z,30.2791,-87.5561,0.0,1.76,218.2,-9999.0,'1111122,1111122,1111122' 
DISL,ioos:station:DISL:PPTA:1,2012-09-02T17:00:00Z,30.2791,-87.5561,0.0,2.09,224.1,-9999.0,'1111122,1111122,1111122' 
DISL,ioos:station:DISL:PPTA:1,2012-09-02T17:30:00Z,30.2791,-87.5561,0.0,3.55,180.2,-9999.0,'1111122,1111122,1111122' 
DISL,ioos:station:DISL:PPTA:1,2012-09-02T18:00:00Z,30.2791,-87.5561,0.0,5.37,177.2,-9999.0,'1111122,1111122,1111122' 
DISL,ioos:station:DISL:PPTA:1,2012-09-02T18:30:00Z,30.2791,-87.5561,0.0,3.65,178.2,-9999.0,'1111122,1111122,1111122' 
DISL,ioos:station:DISL:PPTA:1,2012-09-02T19:00:00Z,30.2791,-87.5561,0.0,2.72,189.4,-9999.0,'1111122,1111122,1111122' 
DISL,ioos:station:DISL:PPTA:1,2012-09-02T19:30:00Z,30.2791,-87.5561,0.0,2.55,196.5,-9999.0,'1111122,1111122,1111122' 
DISL,ioos:station:DISL:PPTA:1,2012-09-02T20:00:00Z,30.2791,-87.5561,0.0,3.06,186.4,-9999.0,'1111122,1111122,1111122' 
DISL,ioos:station:DISL:PPTA:1,2012-09-02T20:30:00Z,30.2791,-87.5561,0.0,2.4,185.7,-9999.0,'1111122,1111122,1111122' 
DISL,ioos:station:DISL:PPTA:1,2012-09-02T21:00:00Z,30.2791,-87.5561,0.0,1.93,215.8,-9999.0,'1111122,1111122,1111122' 
DISL,ioos:station:DISL:PPTA:1,2012-09-02T21:30:00Z,30.2791,-87.5561,0.0,2.53,193.2,-9999.0,'1111122,1111122,1111122' 
DISL,ioos:station:DISL:PPTA:1,2012-09-02T22:00:00Z,30.2791,-87.5561,0.0,3.02,185.4,-9999.0,'1111122,1111122,1111122' 
DISL,ioos:station:DISL:PPTA:1,2012-09-02T22:30:00Z,30.2791,-87.5561,0.0,2.3,189.4,-9999.0,'1111122,1111122,1111122' 
DISL,ioos:station:DISL:PPTA:1,2012-09-02T23:00:00Z,30.2791,-87.5561,0.0,1.83,198.1,-9999.0,'1111122,1111122,1111122' 
DISL,ioos:station:DISL:PPTA:1,2012-09-02T23:30:00Z,30.2791,-87.5561,0.0,1.58,208.1,-9999.0,'1111122,1111122,1111122' 
DISL,ioos:station:DISL:PPTA:1,2012-09-03T00:00:00Z,30.2791,-87.5561,0.0,1.8,228.2,-9999.0,'1111122,1111122,1111122' 
DISL,ioos:station:DISL:PPTA:1,2012-09-03T00:30:00Z,30.2791,-87.5561,0.0,1.85,231.3,-9999.0,'1111122,1111122,1111122' 
DISL,ioos:station:DISL:PPTA:1,2012-09-03T01:00:00Z,30.2791,-87.5561,0.0,1.03,230.5,-9999.0,'1111122,1111122,1111122' 
DISL,ioos:station:DISL:PPTA:1,2012-09-03T01:30:00Z,30.2791,-87.5561,0.0,1.25,206.4,-9999.0,'1111122,1111122,1111122' 
DISL,ioos:station:DISL:PPTA:1,2012-09-03T02:00:00Z,30.2791,-87.5561,0.0,1.45,219.6,-9999.0,'1111122,1111122,1111122' 
DISL,ioos:station:DISL:PPTA:1,2012-09-03T02:30:00Z,30.2791,-87.5561,0.0,1.79,230.1,-9999.0,'1111122,1111122,1111122' 
DISL,ioos:station:DISL:PPTA:1,2012-09-03T03:00:00Z,30.2791,-87.5561,0.0,3.32,237.0,-9999.0,'1111122,1111122,1111122' 
DISL,ioos:station:DISL:PPTA:1,2012-09-03T03:30:00Z,30.2791,-87.5561,0.0,3.58,236.9,-9999.0,'1111122,1111122,1111122' 
DISL,ioos:station:DISL:PPTA:1,2012-09-03T04:00:00Z,30.2791,-87.5561,0.0,3.75,235.8,-9999.0,'1111122,1111122,1111122' 
DISL,ioos:station:DISL:PPTA:1,2012-09-03T04:30:00Z,30.2791,-87.5561,0.0,3.34,239.4,-9999.0,'1111122,1111122,1111122' 
DISL,ioos:station:DISL:PPTA:1,2012-09-03T05:00:00Z,30.2791,-87.5561,0.0,3.53,238.7,-9999.0,'1111122,1111122,1111122' 
DISL,ioos:station:DISL:PPTA:1,2012-09-03T05:30:00Z,30.2791,-87.5561,0.0,3.77,237.1,-9999.0,'1111122,1111122,1111122' 
DISL,ioos:station:DISL:PPTA:1,2012-09-03T06:00:00Z,30.2791,-87.5561,0.0,3.96,241.2,-9999.0,'1111122,1111122,1111122' 
DISL,ioos:station:DISL:PPTA:1,2012-09-03T06:30:00Z,30.2791,-87.5561,0.0,3.45,237.3,-9999.0,'1111122,1111122,1111122' 
DISL,ioos:station:DISL:PPTA:1,2012-09-03T07:00:00Z,30.2791,-87.5561,0.0,4.63,240.9,-9999.0,'1111122,1111122,1111122' 
DISL,ioos:station:DISL:PPTA:1,2012-09-03T07:30:00Z,30.2791,-87.5561,0.0,4.37,241.2,-9999.0,'1111122,1111122,1111122' 
DISL,ioos:station:DISL:PPTA:1,2012-09-03T08:00:00Z,30.2791,-87.5561,0.0,3.69,239.3,-9999.0,'1111122,1111122,1111122' 
DISL,ioos:station:DISL:PPTA:1,2012-09-03T08:30:00Z,30.2791,-87.5561,0.0,3.59,239.3,-9999.0,'1111122,1111122,1111122' 
DISL,ioos:station:DISL:PPTA:1,2012-09-03T09:00:00Z,30.2791,-87.5561,0.0,3.86,240.2,-9999.0,'1111122,1111122,1111122' 
DISL,ioos:station:DISL:PPTA:1,2012-09-03T09:30:00Z,30.2791,-87.5561,0.0,3.31,243.3,-9999.0,'1111122,1111122,1111122' 
DISL,ioos:station:DISL:PPTA:1,2012-09-03T10:00:00Z,30.2791,-87.5561,0.0,3.04,240.7,-9999.0,'1111122,1111122,1111122' 
DISL,ioos:station:DISL:PPTA:1,2012-09-03T10:30:00Z,30.2791,-87.5561,0.0,4.08,242.6,-9999.0,'1111122,1111122,1111122' 
DISL,ioos:station:DISL:PPTA:1,2012-09-03T11:00:00Z,30.2791,-87.5561,0.0,3.87,242.0,-9999.0,'1111122,1111122,1111122' 
DISL,ioos:station:DISL:PPTA:1,2012-09-03T11:30:00Z,30.2791,-87.5561,0.0,3.23,239.9,-9999.0,'1111122,1111122,1111122' 
DISL,ioos:station:DISL:PPTA:1,2012-09-03T12:00:00Z,30.2791,-87.5561,0.0,2.85,239.8,-9999.0,'1111122,1111122,1111122' 
DISL,ioos:station:DISL:PPTA:1,2012-09-03T12:30:00Z,30.2791,-87.5561,0.0,2.64,242.7,-9999.0,'1111122,1111122,1111122' 
DISL,ioos:station:DISL:PPTA:1,2012-09-03T13:00:00Z,30.2791,-87.5561,0.0,8.42,305.3,-9999.0,'1111122,1111122,1111122' 
DISL,ioos:station:DISL:PPTA:1,2012-09-03T13:30:00Z,30.2791,-87.5561,0.0,0.74,249.4,-9999.0,'1111122,1111122,1111122' 
DISL,ioos:station:DISL:PPTA:1,2012-09-03T14:00:00Z,30.2791,-87.5561,0.0,3.11,253.6,-9999.0,'1111122,1111122,1111122' 
DISL,ioos:station:DISL:PPTA:1,2012-09-03T14:30:00Z,30.2791,-87.5561,0.0,3.91,243.5,-9999.0,'1111122,1111122,1111122' 
DISL,ioos:station:DISL:PPTA:1,2012-09-03T15:00:00Z,30.2791,-87.5561,0.0,2.55,270.0,-9999.0,'1111122,1111122,1111122' 
DISL,ioos:station:DISL:PPTA:1,2012-09-03T15:30:00Z,30.2791,-87.5561,0.0,2.49,242.0,-9999.0,'1111122,1111122,1111122' 
DISL,ioos:station:DISL:PPTA:1,2012-09-03T16:00:00Z,30.2791,-87.5561,0.0,1.76,225.5,-9999.0,'1111122,1111122,1111122' 
DISL,ioos:station:DISL:PPTA:1,2012-09-03T16:30:00Z,30.2791,-87.5561,0.0,3.41,241.5,-9999.0,'1111122,1111122,1111122' 
DISL,ioos:station:DISL:PPTA:1,2012-09-03T17:00:00Z,30.2791,-87.5561,0.0,3.42,233.4,-9999.0,'1111122,1111122,1111122' 
DISL,ioos:station:DISL:PPTA:1,2012-09-03T17:30:00Z,30.2791,-87.5561,0.0,3.59,226.4,-9999.0,'1111122,1111122,1111122' 
DISL,ioos:station:DISL:PPTA:1,2012-09-03T18:00:00Z,30.2791,-87.5561,0.0,4.06,241.2,-9999.0,'1111122,1111122,1111122' 
DISL,ioos:station:DISL:PPTA:1,2012-09-03T18:30:00Z,30.2791,-87.5561,0.0,3.37,228.0,-9999.0,'1111122,1111122,1111122' 
DISL,ioos:station:DISL:PPTA:1,2012-09-03T19:00:00Z,30.2791,-87.5561,0.0,3.5,235.2,-9999.0,'1111122,1111122,1111122' 
DISL,ioos:station:DISL:PPTA:1,2012-09-03T19:30:00Z,30.2791,-87.5561,0.0,4.09,236.0,-9999.0,'1111122,1111122,1111122' 
DISL,ioos:station:DISL:PPTA:1,2012-09-03T20:00:00Z,30.2791,-87.5561,0.0,4.37,234.8,-9999.0,'1111122,1111122,1111122' 
DISL,ioos:station:DISL:PPTA:1,2012-09-03T20:30:00Z,30.2791,-87.5561,0.0,3.53,231.3,-9999.0,'1111122,1111122,1111122' 
DISL,ioos:station:DISL:PPTA:1,2012-09-03T21:00:00Z,30.2791,-87.5561,0.0,3.07,231.1,-9999.0,'1111122,1111122,1111122' 
DISL,ioos:station:DISL:PPTA:1,2012-09-03T21:30:00Z,30.2791,-87.5561,0.0,3.28,242.6,-9999.0,'1111122,1111122,1111122' 
DISL,ioos:station:DISL:PPTA:1,2012-09-03T22:00:00Z,30.2791,-87.5561,0.0,2.95,237.3,-9999.0,'1111122,1111122,1111122' 
DISL,ioos:station:DISL:PPTA:1,2012-09-03T22:30:00Z,30.2791,-87.5561,0.0,2.18,234.0,-9999.0,'1111122,1111122,1111122' 
DISL,ioos:station:DISL:PPTA:1,2012-09-03T23:00:00Z,30.2791,-87.5561,0.0,1.5,215.2,-9999.0,'1111122,1111122,1111122' 
DISL,ioos:station:DISL:PPTA:1,2012-09-03T23:30:00Z,30.2791,-87.5561,0.0,2.31,235.2,-9999.0,'1111122,1111122,1111122' 
DISL,ioos:station:DISL:PPTA:1,2012-09-04T00:00:00Z,30.2791,-87.5561,0.0,1.5,225.1,-9999.0,'1111122,1111122,1111122' 
DISL,ioos:station:DISL:PPTA:1,2012-09-04T00:30:00Z,30.2791,-87.5561,0.0,2.02,229.8,-9999.0,'1111122,1111122,1111122' 
DISL,ioos:station:DISL:PPTA:1,2012-09-04T01:00:00Z,30.2791,-87.5561,0.0,2.1,226.5,-9999.0,'1111122,1111122,1111122' 
DISL,ioos:station:DISL:PPTA:1,2012-09-04T01:30:00Z,30.2791,-87.5561,0.0,1.53,210.4,-9999.0,'1111122,1111122,1111122' 
DISL,ioos:station:DISL:PPTA:1,2012-09-04T02:00:00Z,30.2791,-87.5561,0.0,1.89,229.8,-9999.0,'1111122,1111122,1111122' 
DISL,ioos:station:DISL:PPTA:1,2012-09-04T02:30:00Z,30.2791,-87.5561,0.0,1.61,224.2,-9999.0,'1111122,1111122,1111122' 
DISL,ioos:station:DISL:PPTA:1,2012-09-04T03:00:00Z,30.2791,-87.5561,0.0,1.73,222.3,-9999.0,'1111122,1111122,1111122' 
DISL,ioos:station:DISL:PPTA:1,2012-09-04T03:30:00Z,30.2791,-87.5561,0.0,1.72,218.5,-9999.0,'1111122,1111122,1111122' 
DISL,ioos:station:DISL:PPTA:1,2012-09-04T04:00:00Z,30.2791,-87.5561,0.0,2.04,225.9,-9999.0,'1111122,1111122,1111122' 
DISL,ioos:station:DISL:PPTA:1,2012-09-04T04:30:00Z,30.2791,-87.5561,0.0,1.88,230.9,-9999.0,'1111122,1111122,1111122' 
DISL,ioos:station:DISL:PPTA:1,2012-09-04T05:00:00Z,30.2791,-87.5561,0.0,2.05,220.7,-9999.0,'1111122,1111122,1111122' 
DISL,ioos:station:DISL:PPTA:1,2012-09-04T05:30:00Z,30.2791,-87.5561,0.0,2.65,234.6,-9999.0,'1111122,1111122,1111122' 
DISL,ioos:station:DISL:PPTA:1,2012-09-04T06:00:00Z,30.2791,-87.5561,0.0,5.51,235.1,-9999.0,'1111122,1111122,1111122' 
DISL,ioos:station:DISL:PPTA:1,2012-09-04T06:30:00Z,30.2791,-87.5561,0.0,4.25,241.3,-9999.0,'1111122,1111122,1111122' 
DISL,ioos:station:DISL:PPTA:1,2012-09-04T07:00:00Z,30.2791,-87.5561,0.0,4.73,237.4,-9999.0,'1111122,1111122,1111122' 
DISL,ioos:station:DISL:PPTA:1,2012-09-04T07:30:00Z,30.2791,-87.5561,0.0,4.68,236.2,-9999.0,'1111122,1111122,1111122' 
DISL,ioos:station:DISL:PPTA:1,2012-09-04T08:00:00Z,30.2791,-87.5561,0.0,4.87,241.8,-9999.0,'1111122,1111122,1111122' 
DISL,ioos:station:DISL:PPTA:1,2012-09-04T08:30:00Z,30.2791,-87.5561,0.0,3.8,239.5,-9999.0,'1111122,1111122,1111122' 
DISL,ioos:station:DISL:PPTA:1,2012-09-04T09:00:00Z,30.2791,-87.5561,0.0,4.69,236.7,-9999.0,'1111122,1111122,1111122' 
DISL,ioos:station:DISL:PPTA:1,2012-09-04T09:30:00Z,30.2791,-87.5561,0.0,4.52,236.7,-9999.0,'1111122,1111122,1111122' 
DISL,ioos:station:DISL:PPTA:1,2012-09-04T10:00:00Z,30.2791,-87.5561,0.0,3.11,231.0,-9999.0,'1111122,1111122,1111122' 
DISL,ioos:station:DISL:PPTA:1,2012-09-04T10:30:00Z,30.2791,-87.5561,0.0,4.1,236.2,-9999.0,'1111122,1111122,1111122' 
DISL,ioos:station:DISL:PPTA:1,2012-09-04T11:00:00Z,30.2791,-87.5561,0.0,4.03,239.5,-9999.0,'1111122,1111122,1111122' 
DISL,ioos:station:DISL:PPTA:1,2012-09-04T11:30:00Z,30.2791,-87.5561,0.0,3.31,252.7,-9999.0,'1111122,1111122,1111122' 
DISL,ioos:station:DISL:PPTA:1,2012-09-04T12:00:00Z,30.2791,-87.5561,0.0,3.7,269.1,-9999.0,'1111122,1111122,1111122' 
DISL,ioos:station:DISL:PPTA:1,2012-09-04T12:30:00Z,30.2791,-87.5561,0.0,2.09,217.2,-9999.0,'1111122,1111122,1111122' 
DISL,ioos:station:DISL:PPTA:1,2012-09-04T13:00:00Z,30.2791,-87.5561,0.0,3.45,227.7,-9999.0,'1111122,1111122,1111122' 
DISL,ioos:station:DISL:PPTA:1,2012-09-04T13:30:00Z,30.2791,-87.5561,0.0,1.07,246.6,-9999.0,'1111122,1111122,1111122' 
DISL,ioos:station:DISL:PPTA:1,2012-09-04T14:00:00Z,30.2791,-87.5561,0.0,3.9,251.9,-9999.0,'1111122,1111122,1111122' 
DISL,ioos:station:DISL:PPTA:1,2012-09-04T14:30:00Z,30.2791,-87.5561,0.0,3.96,243.6,-9999.0,'1111122,1111122,1111122' 
DISL,ioos:station:DISL:PPTA:1,2012-09-04T15:00:00Z,30.2791,-87.5561,0.0,3.47,247.8,-9999.0,'1111122,1111122,1111122' 
DISL,ioos:station:DISL:PPTA:1,2012-09-04T15:30:00Z,30.2791,-87.5561,0.0,5.71,261.4,-9999.0,'1111122,1111122,1111122' 
DISL,ioos:station:DISL:PPTA:1,2012-09-04T16:00:00Z,30.2791,-87.5561,0.0,4.48,249.7,-9999.0,'1111122,1111122,1111122' 
DISL,ioos:station:DISL:PPTA:1,2012-09-04T16:30:00Z,30.2791,-87.5561,0.0,4.98,253.5,-9999.0,'1111122,1111122,1111122' 
DISL,ioos:station:DISL:PPTA:1,2012-09-04T17:00:00Z,30.2791,-87.5561,0.0,4.59,259.1,-9999.0,'1111122,1111122,1111122' 
DISL,ioos:station:DISL:PPTA:1,2012-09-04T17:30:00Z,30.2791,-87.5561,0.0,5.16,257.7,-9999.0,'1111122,1111122,1111122' 
DISL,ioos:station:DISL:PPTA:1,2012-09-04T18:00:00Z,30.2791,-87.5561,0.0,4.38,256.2,-9999.0,'1111122,1111122,1111122' 
DISL,ioos:station:DISL:PPTA:1,2012-09-04T18:30:00Z,30.2791,-87.5561,0.0,3.01,250.3,-9999.0,'1111122,1111122,1111122' 
DISL,ioos:station:DISL:PPTA:1,2012-09-04T19:00:00Z,30.2791,-87.5561,0.0,3.12,250.1,-9999.0,'1111122,1111122,1111122' 
DISL,ioos:station:DISL:PPTA:1,2012-09-04T19:30:00Z,30.2791,-87.5561,0.0,3.1,238.2,-9999.0,'1111122,1111122,1111122' 
DISL,ioos:station:DISL:PPTA:1,2012-09-04T20:00:00Z,30.2791,-87.5561,0.0,3.01,234.2,-9999.0,'1111122,1111122,1111122' 
DISL,ioos:station:DISL:PPTA:1,2012-09-04T20:30:00Z,30.2791,-87.5561,0.0,3.44,239.8,-9999.0,'1111122,1111122,1111122' 
DISL,ioos:station:DISL:PPTA:1,2012-09-04T21:00:00Z,30.2791,-87.5561,0.0,2.77,231.7,-9999.0,'1111122,1111122,1111122' 
DISL,ioos:station:DISL:PPTA:1,2012-09-04T21:30:00Z,30.2791,-87.5561,0.0,1.15,223.7,-9999.0,'1111122,1111122,1111122' 
DISL,ioos:station:DISL:PPTA:1,2012-09-04T22:00:00Z,30.2791,-87.5561,0.0,1.42,198.3,-9999.0,'1111122,1111122,1111122' 
DISL,ioos:station:DISL:PPTA:1,2012-09-04T22:30:00Z,30.2791,-87.5561,0.0,1.96,186.5,-9999.0,'1111122,1111122,1111122' 
DISL,ioos:station:DISL:PPTA:1,2012-09-04T23:00:00Z,30.2791,-87.5561,0.0,3.68,174.6,-9999.0,'1111122,1111122,1111122' 
DISL,ioos:station:DISL:PPTA:1,2012-09-04T23:30:00Z,30.2791,-87.5561,0.0,3.74,170.3,-9999.0,'1111122,1111122,1111122' 
DISL,ioos:station:DISL:PPTA:1,2012-09-05T00:00:00Z,30.2791,-87.5561,0.0,4.09,175.0,-9999.0,'1111122,1111122,1111122' 
DISL,ioos:station:DISL:PPTA:1,2012-09-05T00:30:00Z,30.2791,-87.5561,0.0,5.46,175.9,-9999.0,'1111122,1111122,1111122' 
DISL,ioos:station:DISL:PPTA:1,2012-09-05T01:00:00Z,30.2791,-87.5561,0.0,3.93,341.3,-9999.0,'1111122,1111122,1111122' 
DISL,ioos:station:DISL:PPTA:1,2012-09-05T01:30:00Z,30.2791,-87.5561,0.0,1.73,216.1,-9999.0,'1111122,1111122,1111122' 
DISL,ioos:station:DISL:PPTA:1,2012-09-05T02:00:00Z,30.2791,-87.5561,0.0,2.41,226.2,-9999.0,'1111122,1111122,1111122' 
DISL,ioos:station:DISL:PPTA:1,2012-09-05T02:30:00Z,30.2791,-87.5561,0.0,1.96,216.2,-9999.0,'1111122,1111122,1111122' 
DISL,ioos:station:DISL:PPTA:1,2012-09-05T03:00:00Z,30.2791,-87.5561,0.0,7.1,246.4,-9999.0,'1111122,1111122,1111122' 
DISL,ioos:station:DISL:PPTA:1,2012-09-05T03:30:00Z,30.2791,-87.5561,0.0,6.21,255.9,-9999.0,'1111122,1111122,1111122' 
DISL,ioos:station:DISL:PPTA:1,2012-09-05T04:00:00Z,30.2791,-87.5561,0.0,4.53,250.1,-9999.0,'1111122,1111122,1111122' 
DISL,ioos:station:DISL:PPTA:1,2012-09-05T04:30:00Z,30.2791,-87.5561,0.0,4.06,233.0,-9999.0,'1111122,1111122,1111122' 